STARLINK-3830 (52363 NORAD) Tracking and Keplerian Element Data
This shows tracking and keplerian element data for the satellite.
Feedback or suggestion? Click here.
Element | Value |
Catalog | 52363 |
Name | STARLINK-3830 |
Epoch Orbit | 130 |
Epoch Day | 167.08334491 |
Epoch Year | 2022 |
RAAN | 203.0141 |
Inclination | 53.2174 |
Eccentricity | 0.0001252 |
Argument of Perigee | 70.1834 |
Mean Anonmoly | 89.21 |
Mean Motion | 15.62291086 |
Decay Rate | -0.00715253 |
L1 | 1 52363U 22045AJ 22167.08334491 -.00715253 00000+0 -86757-2 0 9991 |
L2 | 2 52363 53.2174 203.0141 0001252 70.1834 89.2100 15.62291086 1301 |
Live tracking and technical data element details for STARLINK-3830 (NORAD 52363). STARLINK-3830 can be tracked NOW for your location showing map with azimuth and elevation plus other details from your city location.
Track the satellite on the map from your city or location and see movement details for azimuth, elevation, latitude, longitude, range, height, and movement on the map or in text.
IsCatalogInMostPopularTable: catalog: 52363, numindb: 7
Update: records affected: 1
GetName: 52363 STARLINK-3830
Hit Count: updated at: Mon, 27 Jun 2022 05:41:13 GMT